Location: Clifton Park
(41.4873°N, 81.8024°W)
Time: 18:45:54
(UTC+00:00)

Meteor 1-11 - Pass Details

Date: 21 January 2020
Orbit: 840 x 888 km, 81.2° (Epoch: 16 February)

Event Time Altitude Azimuth Distance (km) Brightness Sun altitude
Rises 11:29:17 0° 351° (N) 3,407 7.1 -14.7°
Reaches altitude 10° 11:31:42 10° 353° (N) 2,471 6.4 -14.3°
Maximum altitude 11:37:19 78° 80° (E) 869 4.4 -13.3°
Drops below altitude 10° 11:42:56 10° 167° (SSE) 2,477 7.0 -12.2°
Sets 11:45:22 0° 169° (SSE) 3,416 7.8 -11.8°
